sat.trackr.live / text

‹ back to catalog

SCD 1

NORAD 22490 · 1993-009B

PAYLOAD ACTIVE UNKNOWN

§ Identity

Operator
Country
BRAZ
Launch date
1993-02-09
Launch site
AFETR
Launch vehicle
Mass (kg)
RCS (m²)
0.82

Purposes: earth_obs

External: N2YO · Heavens-Above · Gunter

§ Orbital elements

Epoch: 2026-05-24T23:43:54.439392Z

Period
99.58 min
Inclination
24.9712°
Eccentricity
0.0041737
Mean motion
14.46108768 rev/d
Perigee alt
708.7 km
Apogee alt
768.1 km
Semi-major
7,116.5 km
B*
5.0475e-5
RAAN
350.8103°
Arg perigee
252.4381°
Mean anomaly
229.5931°
Rev number
75,775

§ Raw data

SCD 11 22490U 93009B   26144.98882453  .00000371  00000+0  50475-4 0  99972 22490  24.9712 350.8103 0041737 252.4381 229.5931 14.46108768757758

JSON: /api/v1/satellites/22490 · /tle

For live sub-satellite position, see the globe view (requires WebGL).

§ Visibility from observer

Set your observer location to see the next 7 days of passes ≥ 10°. The values pass through the URL so the page stays shareable.

No JS? Fill the form by hand. The geolocation button needs JavaScript.